Home > Weather > Toowoomba > Past weeks

Flag for Australia Past Weather in Toowoomba, Queensland, Australia — Yesterday and Last 2 Weeks

Now
39 °F

Chilly.


Feels Like: 34 °F
Forecast: 36 / 60 °F
Wind: 6 mph from North

Location: Oakey Aerodrome

Current Time: Jun 28, 2016 at 11:27:26 PM

Latest Report: Jun 28, 2016 at 10:00 PM


Visibility: N/A

Pressure: 30.32 "Hg (28.17 "Hg at 597m altitude)

Humidity: 90%

Dew Point: 36 °F

Location of ToowoombaLocation

Past Weather in Toowoomba — Graph

°F

Toowoomba Temperature Yesterday

Maximum temperature yesterday: 53 °F (at 3:00 AM)
Minimum temperature yesterday: 42 °F (at 10:00 PM)
Average temperature yesterday: 49 °F

High & Low Weather Summary for the Past Weeks

 TemperatureHumidityPressure
High68 °F (Jun 18, 3:00 PM)99% (Jun 23, 7:00 AM)30.51 "Hg (Jun 23, 7:00 AM)
Low29 °F (Jun 26, 4:00 AM)36% (Jun 25, 3:00 PM)29.77 "Hg (Jun 19, 7:00 PM)
Average54 °F81%30.10 "Hg
* Reported Jun 13 10:00 PM — Jun 28 10:00 PM, Toowoomba, Weather by CustomWeather, © 2016

Note: Actual official high and low records may vary slightly from our data, if they occured in-between our weather recording intervals... More about our weather records

Advertising

Toowoomba Weather History for the Previous 24 Hours

Scroll right to see more
 ConditionsComfort  
Time TempWeatherWind HumidityBarometerVisibility
10:00 PM
Tue, Jun 28
39 °FChilly.6 mph90%30.32 "HgN/A
9:00 PM41 °FQuite cool.9 mph88%30.32 "HgN/A
7:00 PM45 °FCool.14 mph81%30.30 "HgN/A
6:00 PM46 °FCool.9 mph72%30.27 "HgN/A
4:00 PM55 °FCool.14 mph53%30.21 "HgN/A
3:00 PM55 °FCool.16 mph51%30.20 "HgN/A
1:00 PM53 °FCool.17 mph60%30.19 "HgN/A
12:00 PM50 °FPassing clouds.20 mph63%30.21 "HgN/A
10:00 AM45 °FQuite cool.16 mph70%30.26 "HgN/A
9:00 AM43 °FOvercast.20 mph73%30.24 "HgN/A
7:00 AM42 °FQuite cool.20 mph78%30.21 "HgN/A
6:00 AM42 °FOvercast.20 mph84%30.19 "HgN/A
4:00 AM42 °FQuite cool.18 mph84%30.17 "HgN/A
3:00 AM41 °FOvercast.16 mph89%30.16 "HgN/A
1:00 AM42 °FQuite cool.18 mph87%30.16 "HgN/A
12:00 AM41 °FLow clouds.16 mph92%30.16 "HgN/A
Weather by CustomWeather, © 2016

See weather overviewHow to use our weather pages